Time,TemperatureF,DewpointF,PressureIn,WindDirection,WindDirectionDegrees,WindSpeedMPH,WindSpeedGustMPH,Humidity,HourlyPrecipIn,Conditions,Clouds,dailyrainin,SoftwareType,DateUTC
2013-02-06 00:00:00,34.4,25.0,29.71,WNW,294,0.0,0.0,68,0.00,,---,0.00,VWS V13.00,2013-02-06 07:00:00,
2013-02-06 00:05:00,34.4,25.0,29.71,WNW,294,0.0,0.0,68,0.00,,---,0.00,VWS V13.00,2013-02-06 07:05:00,
2013-02-06 00:10:00,34.4,25.3,29.71,WNW,294,0.0,0.0,69,0.00,,---,0.00,VWS V13.00,2013-02-06 07:10:00,
2013-02-06 00:15:00,34.4,25.3,29.71,WNW,294,4.0,4.0,69,0.00,,---,0.00,VWS V13.00,2013-02-06 07:15:00,
2013-02-06 00:20:00,34.4,25.3,29.71,WNW,292,4.0,4.0,69,0.00,,---,0.00,VWS V13.00,2013-02-06 07:20:00,
2013-02-06 00:25:00,34.4,25.3,29.71,WNW,291,2.0,4.0,69,0.00,,---,0.00,VWS V13.00,2013-02-06 07:25:00,
2013-02-06 00:30:00,34.7,25.2,29.71,WNW,291,0.0,4.0,68,0.00,,---,0.00,VWS V13.00,2013-02-06 07:30:00,
2013-02-06 00:35:00,34.7,25.9,29.71,WNW,291,0.0,4.0,70,0.00,,---,0.00,VWS V13.00,2013-02-06 07:35:00,
2013-02-06 00:40:00,34.5,25.7,29.70,WNW,291,3.0,3.0,70,0.00,,---,0.00,VWS V13.00,2013-02-06 07:40:00,
2013-02-06 00:45:00,34.4,25.3,29.70,WNW,291,5.0,5.0,69,0.00,,---,0.00,VWS V13.00,2013-02-06 07:45:00,
2013-02-06 00:50:00,34.4,25.6,29.70,WNW,291,0.0,5.0,70,0.00,,---,0.00,VWS V13.00,2013-02-06 07:50:00,
2013-02-06 00:55:00,34.2,25.5,29.72,WNW,291,0.0,5.0,70,0.00,,---,0.00,VWS V13.00,2013-02-06 07:55:00,
2013-02-06 01:00:00,33.9,25.8,29.72,WNW,291,0.0,5.0,72,0.00,,---,0.00,VWS V13.00,2013-02-06 08:00:00,
2013-02-06 01:05:00,33.9,25.2,29.72,WNW,291,1.0,5.0,70,0.00,,---,0.00,VWS V13.00,2013-02-06 08:05:00,
2013-02-06 01:10:00,34.1,25.4,29.71,WNW,291,2.0,3.0,70,0.00,,---,0.00,VWS V13.00,2013-02-06 08:10:00,
2013-02-06 01:15:00,34.4,25.6,29.71,West,273,5.0,6.0,70,0.00,,---,0.00,VWS V13.00,2013-02-06 08:15:00,
2013-02-06 01:20:00,34.8,25.7,29.71,West,262,4.0,6.0,69,0.00,,---,0.00,VWS V13.00,2013-02-06 08:20:00,
2013-02-06 01:25:00,35.1,25.6,29.71,West,261,0.0,6.0,68,0.00,,---,0.00,VWS V13.00,2013-02-06 08:25:00,
2013-02-06 01:30:00,35.2,26.1,29.71,West,260,1.0,6.0,69,0.00,,---,0.00,VWS V13.00,2013-02-06 08:30:00,
2013-02-06 01:35:00,35.2,26.1,29.71,West,260,0.0,6.0,69,0.00,,---,0.00,VWS V13.00,2013-02-06 08:35:00,
2013-02-06 01:40:00,35.2,26.1,29.72,West,261,0.0,0.0,69,0.00,,---,0.00,VWS V13.00,2013-02-06 08:40:00,
2013-02-06 01:45:00,35.0,26.6,29.72,West,261,0.0,0.0,71,0.00,,---,0.00,VWS V13.00,2013-02-06 08:45:00,
2013-02-06 01:50:00,34.4,25.6,29.72,WSW,254,6.0,10.0,70,0.00,,---,0.00,VWS V13.00,2013-02-06 08:50:00,
2013-02-06 01:55:00,34.4,25.6,29.74,SW,232,8.0,10.0,70,0.00,,---,0.00,VWS V13.00,2013-02-06 08:55:00,
2013-02-06 02:00:00,34.4,25.6,29.74,WSW,246,6.0,11.0,70,0.00,,---,0.00,VWS V13.00,2013-02-06 09:00:00,
2013-02-06 02:05:00,34.5,25.4,29.74,SW,223,4.0,12.0,69,0.00,,---,0.00,VWS V13.00,2013-02-06 09:05:00,
2013-02-06 02:10:00,34.7,25.2,29.74,SW,230,7.0,7.0,68,0.00,,---,0.00,VWS V13.00,2013-02-06 09:10:00,
2013-02-06 02:15:00,34.9,25.1,29.74,SW,230,5.0,9.0,67,0.00,,---,0.00,VWS V13.00,2013-02-06 09:15:00,
2013-02-06 02:20:00,35.1,24.9,29.74,SW,228,6.0,9.0,66,0.00,,---,0.00,VWS V13.00,2013-02-06 09:20:00,
2013-02-06 02:25:00,35.2,25.4,29.74,SW,233,6.0,10.0,67,0.00,,---,0.00,VWS V13.00,2013-02-06 09:25:00,
2013-02-06 02:30:00,35.2,25.4,29.74,SW,234,7.0,10.0,67,0.00,,---,0.00,VWS V13.00,2013-02-06 09:30:00,
2013-02-06 02:35:00,35.1,25.3,29.74,SW,232,3.0,11.0,67,0.00,,---,0.00,VWS V13.00,2013-02-06 09:35:00,
2013-02-06 02:40:00,34.8,25.3,29.74,SW,232,7.0,9.0,68,0.00,,---,0.00,VWS V13.00,2013-02-06 09:40:00,
2013-02-06 02:45:00,34.5,25.4,29.74,SW,232,9.0,11.0,69,0.00,,---,0.00,VWS V13.00,2013-02-06 09:45:00,
2013-02-06 02:50:00,34.4,25.0,29.74,WSW,248,11.0,12.0,68,0.00,,---,0.00,VWS V13.00,2013-02-06 09:50:00,
2013-02-06 02:55:00,34.3,24.9,29.75,West,259,9.0,12.0,68,0.00,,---,0.00,VWS V13.00,2013-02-06 09:55:00,
2013-02-06 03:00:00,34.1,24.7,29.75,WSW,256,10.0,12.0,68,0.00,,---,0.00,VWS V13.00,2013-02-06 10:00:00,
2013-02-06 03:05:00,33.7,23.9,29.75,West,267,8.0,12.0,67,0.00,,---,0.00,VWS V13.00,2013-02-06 10:05:00,
2013-02-06 03:10:00,33.2,23.8,29.76,West,267,7.0,7.0,68,0.00,,---,0.00,VWS V13.00,2013-02-06 10:10:00,
2013-02-06 03:15:00,32.8,23.4,29.76,West,267,3.0,7.0,68,0.00,,---,0.00,VWS V13.00,2013-02-06 10:15:00,
2013-02-06 03:20:00,32.4,23.4,29.76,West,267,0.0,7.0,69,0.00,,---,0.00,VWS V13.00,2013-02-06 10:20:00,
2013-02-06 03:25:00,32.1,23.1,29.77,West,267,1.0,7.0,69,0.00,,---,0.00,VWS V13.00,2013-02-06 10:25:00,
2013-02-06 03:30:00,31.8,23.1,29.77,West,267,4.0,7.0,70,0.00,,---,0.00,VWS V13.00,2013-02-06 10:30:00,
2013-02-06 03:35:00,31.3,22.7,29.77,West,280,7.0,10.0,70,0.00,,---,0.00,VWS V13.00,2013-02-06 10:35:00,
2013-02-06 03:40:00,31.1,22.8,29.77,West,275,6.0,7.0,71,0.00,,---,0.00,VWS V13.00,2013-02-06 10:40:00,
2013-02-06 03:45:00,30.9,22.6,29.77,West,265,6.0,10.0,71,0.00,,---,0.00,VWS V13.00,2013-02-06 10:45:00,
2013-02-06 03:50:00,30.8,22.5,29.77,WSW,252,5.0,10.0,71,0.00,,---,0.00,VWS V13.00,2013-02-06 10:50:00,
2013-02-06 03:55:00,30.8,22.5,29.79,West,259,9.0,10.0,71,0.00,,---,0.00,VWS V13.00,2013-02-06 10:55:00,
2013-02-06 04:00:00,30.7,22.8,29.79,West,260,9.0,10.0,72,0.00,,---,0.00,VWS V13.00,2013-02-06 11:00:00,
2013-02-06 04:05:00,30.6,22.7,29.79,West,260,5.0,10.0,72,0.00,,---,0.00,VWS V13.00,2013-02-06 11:05:00,
2013-02-06 04:10:00,30.4,22.8,29.79,WSW,252,9.0,10.0,73,0.00,,---,0.00,VWS V13.00,2013-02-06 11:10:00,
2013-02-06 04:15:00,30.4,22.8,29.79,WSW,250,6.0,11.0,73,0.00,,---,0.00,VWS V13.00,2013-02-06 11:15:00,
2013-02-06 04:20:00,30.7,22.8,29.79,WSW,251,5.0,12.0,72,0.00,,---,0.00,VWS V13.00,2013-02-06 11:20:00,
2013-02-06 04:25:00,31.3,22.7,29.79,WSW,250,11.0,13.0,70,0.00,,---,0.00,VWS V13.00,2013-02-06 11:25:00,
2013-02-06 04:30:00,32.0,23.0,29.79,WSW,249,2.0,13.0,69,0.00,,---,0.00,VWS V13.00,2013-02-06 11:30:00,
2013-02-06 04:35:00,31.9,22.9,29.79,NNW,336,1.0,13.0,69,0.00,,---,0.00,VWS V13.00,2013-02-06 11:35:00,
2013-02-06 04:40:00,31.8,22.5,29.80,NNW,336,2.0,2.0,68,0.00,,---,0.00,VWS V13.00,2013-02-06 11:40:00,
2013-02-06 04:45:00,31.9,22.5,29.80,NNW,336,2.0,4.0,68,0.00,,---,0.00,VWS V13.00,2013-02-06 11:45:00,
2013-02-06 04:50:00,31.9,22.2,29.80,NNW,336,0.0,4.0,67,0.00,,---,0.00,VWS V13.00,2013-02-06 11:50:00,
2013-02-06 04:55:00,31.8,22.1,29.81,NNW,336,0.0,4.0,67,0.00,,---,0.00,VWS V13.00,2013-02-06 11:55:00,
2013-02-06 05:00:00,31.9,21.9,29.81,NNW,334,0.0,4.0,66,0.00,,---,0.00,VWS V13.00,2013-02-06 12:00:00,
2013-02-06 05:05:00,31.9,21.9,29.81,WSW,257,5.0,5.0,66,0.00,,---,0.00,VWS V13.00,2013-02-06 12:05:00,
2013-02-06 05:10:00,31.9,21.5,29.81,WSW,250,4.0,5.0,65,0.00,,---,0.00,VWS V13.00,2013-02-06 12:10:00,
2013-02-06 05:15:00,31.8,21.4,29.81,WSW,249,5.0,6.0,65,0.00,,---,0.00,VWS V13.00,2013-02-06 12:15:00,
2013-02-06 05:20:00,31.7,21.3,29.81,WSW,248,3.0,6.0,65,0.00,,---,0.00,VWS V13.00,2013-02-06 12:20:00,
2013-02-06 05:25:00,31.6,21.2,29.81,WSW,248,4.0,6.0,65,0.00,,---,0.00,VWS V13.00,2013-02-06 12:25:00,
2013-02-06 05:30:00,31.6,21.2,29.81,WSW,248,4.0,7.0,65,0.00,,---,0.00,VWS V13.00,2013-02-06 12:30:00,
2013-02-06 05:35:00,31.5,20.7,29.81,WSW,244,7.0,7.0,64,0.00,,---,0.00,VWS V13.00,2013-02-06 12:35:00,
2013-02-06 05:40:00,31.4,20.6,29.81,WSW,240,6.0,9.0,64,0.00,,---,0.00,VWS V13.00,2013-02-06 12:40:00,
2013-02-06 05:45:00,31.3,20.5,29.81,WSW,242,6.0,9.0,64,0.00,,---,0.00,VWS V13.00,2013-02-06 12:45:00,
2013-02-06 05:50:00,31.2,20.5,29.81,West,264,5.0,11.0,64,0.00,,---,0.00,VWS V13.00,2013-02-06 12:50:00,
2013-02-06 05:55:00,31.1,20.0,29.82,West,263,7.0,11.0,63,0.00,,---,0.00,VWS V13.00,2013-02-06 12:55:00,
2013-02-06 06:00:00,30.9,20.2,29.82,WSW,254,9.0,11.0,64,0.00,,---,0.00,VWS V13.00,2013-02-06 13:00:00,
2013-02-06 06:05:00,30.6,19.9,29.82,WSW,258,11.0,12.0,64,0.00,,---,0.00,VWS V13.00,2013-02-06 13:05:00,
2013-02-06 06:10:00,30.2,19.5,29.82,WSW,256,9.0,11.0,64,0.00,,---,0.00,VWS V13.00,2013-02-06 13:10:00,
2013-02-06 06:15:00,29.7,19.4,29.82,WSW,257,5.0,12.0,65,0.00,,---,0.00,VWS V13.00,2013-02-06 13:15:00,
2013-02-06 06:20:00,29.2,18.9,29.82,West,264,12.0,15.0,65,0.00,,---,0.00,VWS V13.00,2013-02-06 13:20:00,
2013-02-06 06:25:00,28.8,18.5,29.82,WSW,257,13.0,15.0,65,0.00,,---,0.00,VWS V13.00,2013-02-06 13:25:00,
2013-02-06 06:30:00,29.1,18.8,29.82,West,269,16.0,19.0,65,0.00,,---,0.00,VWS V13.00,2013-02-06 13:30:00,
2013-02-06 06:35:00,29.4,18.4,29.82,West,276,12.0,21.0,63,0.00,,---,0.00,VWS V13.00,2013-02-06 13:35:00,
2013-02-06 06:40:00,29.8,18.8,29.81,West,276,14.0,14.0,63,0.00,,---,0.00,VWS V13.00,2013-02-06 13:40:00,
2013-02-06 06:45:00,29.8,18.8,29.81,West,273,11.0,14.0,63,0.00,,---,0.00,VWS V13.00,2013-02-06 13:45:00,
2013-02-06 06:50:00,29.7,18.7,29.81,West,263,13.0,16.0,63,0.00,,---,0.00,VWS V13.00,2013-02-06 13:50:00,
2013-02-06 06:55:00,29.5,18.5,29.82,West,259,13.0,16.0,63,0.00,,---,0.00,VWS V13.00,2013-02-06 13:55:00,
2013-02-06 07:00:00,29.2,18.5,29.82,West,263,14.0,16.0,64,0.00,,---,0.00,VWS V13.00,2013-02-06 14:00:00,
2013-02-06 07:05:00,28.9,18.3,29.82,West,265,15.0,16.0,64,0.00,,---,0.00,VWS V13.00,2013-02-06 14:05:00,
2013-02-06 07:10:00,28.8,18.2,29.84,West,269,14.0,16.0,64,0.00,,---,0.00,VWS V13.00,2013-02-06 14:10:00,
2013-02-06 07:15:00,28.9,18.3,29.84,West,272,13.0,17.0,64,0.00,,---,0.00,VWS V13.00,2013-02-06 14:15:00,
2013-02-06 07:20:00,28.9,18.3,29.84,West,274,13.0,17.0,64,0.00,,---,0.00,VWS V13.00,2013-02-06 14:20:00,
2013-02-06 07:25:00,28.8,18.2,29.85,West,267,12.0,17.0,64,0.00,,---,0.00,VWS V13.00,2013-02-06 14:25:00,
2013-02-06 07:30:00,28.8,18.2,29.85,WSW,248,9.0,17.0,64,0.00,,---,0.00,VWS V13.00,2013-02-06 14:30:00,
2013-02-06 07:35:00,28.4,18.1,29.85,WSW,243,11.0,17.0,65,0.00,,---,0.00,VWS V13.00,2013-02-06 14:35:00,
2013-02-06 07:40:00,27.9,17.7,29.85,SW,235,12.0,12.0,65,0.00,,---,0.00,VWS V13.00,2013-02-06 14:40:00,
2013-02-06 07:45:00,27.5,17.6,29.85,SW,229,10.0,14.0,66,0.00,,---,0.00,VWS V13.00,2013-02-06 14:45:00,
2013-02-06 07:50:00,26.9,17.4,29.85,SW,232,10.0,14.0,67,0.00,,---,0.00,VWS V13.00,2013-02-06 14:50:00,
2013-02-06 07:55:00,26.6,17.1,29.87,WSW,237,7.0,14.0,67,0.00,,---,0.00,VWS V13.00,2013-02-06 14:55:00,
2013-02-06 08:00:00,26.4,16.9,29.87,WSW,237,10.0,14.0,67,0.00,,---,0.00,VWS V13.00,2013-02-06 15:00:00,
2013-02-06 08:05:00,26.7,17.2,29.87,SW,232,11.0,14.0,67,0.00,,---,0.00,VWS V13.00,2013-02-06 15:05:00,
2013-02-06 08:10:00,27.4,17.5,29.89,SW,236,13.0,13.0,66,0.00,,---,0.00,VWS V13.00,2013-02-06 15:10:00,
2013-02-06 08:15:00,28.1,17.9,29.89,SW,232,13.0,15.0,65,0.00,,---,0.00,VWS V13.00,2013-02-06 15:15:00,
2013-02-06 08:20:00,28.8,18.2,29.89,WSW,237,12.0,16.0,64,0.00,,---,0.00,VWS V13.00,2013-02-06 15:20:00,
2013-02-06 08:25:00,29.1,18.5,29.88,WSW,241,9.0,16.0,64,0.00,,---,0.00,VWS V13.00,2013-02-06 15:25:00,
2013-02-06 08:30:00,29.2,18.5,29.88,WSW,244,7.0,16.0,64,0.00,,---,0.00,VWS V13.00,2013-02-06 15:30:00,
2013-02-06 08:35:00,29.2,18.5,29.88,WSW,240,4.0,16.0,64,0.00,,---,0.00,VWS V13.00,2013-02-06 15:35:00,
2013-02-06 08:40:00,29.6,18.2,29.89,SSW,199,4.0,8.0,62,0.00,,---,0.00,VWS V13.00,2013-02-06 15:40:00,
2013-02-06 08:45:00,30.5,17.9,29.89,SW,222,9.0,12.0,59,0.00,,---,0.00,VWS V13.00,2013-02-06 15:45:00,
2013-02-06 08:50:00,31.3,18.6,29.89,SW,229,8.0,12.0,59,0.00,,---,0.00,VWS V13.00,2013-02-06 15:50:00,
2013-02-06 08:55:00,31.6,18.9,29.87,WSW,237,9.0,14.0,59,0.00,,---,0.00,VWS V13.00,2013-02-06 15:55:00,
2013-02-06 09:00:00,31.8,19.1,29.87,WSW,246,14.0,14.0,59,0.00,,---,0.00,VWS V13.00,2013-02-06 16:00:00,
2013-02-06 09:05:00,31.9,19.6,29.87,WSW,237,14.0,15.0,60,0.00,,---,0.00,VWS V13.00,2013-02-06 16:05:00,
2013-02-06 09:10:00,32.1,19.8,29.88,WSW,242,14.0,17.0,60,0.00,,---,0.00,VWS V13.00,2013-02-06 16:10:00,
2013-02-06 09:15:00,32.3,19.6,29.88,WSW,239,17.0,21.0,59,0.00,,---,0.00,VWS V13.00,2013-02-06 16:15:00,
2013-02-06 09:20:00,32.8,20.1,29.88,WSW,240,16.0,22.0,59,0.00,,---,0.00,VWS V13.00,2013-02-06 16:20:00,
2013-02-06 09:25:00,33.0,20.2,29.87,SW,232,18.0,22.0,59,0.00,,---,0.00,VWS V13.00,2013-02-06 16:25:00,
2013-02-06 09:30:00,33.2,20.4,29.87,WSW,238,19.0,24.0,59,0.00,,---,0.00,VWS V13.00,2013-02-06 16:30:00,
2013-02-06 09:35:00,33.4,20.6,29.87,West,263,18.0,27.0,59,0.00,,---,0.00,VWS V13.00,2013-02-06 16:35:00,
2013-02-06 09:40:00,33.6,20.8,29.86,WSW,247,20.0,22.0,59,0.00,,---,0.00,VWS V13.00,2013-02-06 16:40:00,
2013-02-06 09:45:00,33.8,21.0,29.86,WSW,245,19.0,22.0,59,0.00,,---,0.00,VWS V13.00,2013-02-06 16:45:00,
2013-02-06 09:50:00,34.1,21.3,29.86,WSW,242,19.0,23.0,59,0.00,,---,0.00,VWS V13.00,2013-02-06 16:50:00,
2013-02-06 09:55:00,34.2,21.4,29.87,WSW,242,19.0,23.0,59,0.00,,---,0.00,VWS V13.00,2013-02-06 16:55:00,
2013-02-06 10:00:00,34.4,22.0,29.87,SW,229,14.0,23.0,60,0.00,,---,0.00,VWS V13.00,2013-02-06 17:00:00,
2013-02-06 10:05:00,34.4,21.6,29.87,SSW,195,16.0,23.0,59,0.00,,---,0.00,VWS V13.00,2013-02-06 17:05:00,
2013-02-06 10:10:00,34.9,21.6,29.88,SW,235,12.0,16.0,58,0.00,,---,0.00,VWS V13.00,2013-02-06 17:10:00,
2013-02-06 10:15:00,35.5,21.8,29.88,WSW,250,7.0,18.0,57,0.00,,---,0.00,VWS V13.00,2013-02-06 17:15:00,
2013-02-06 10:20:00,35.9,21.8,29.88,SW,232,12.0,20.0,56,0.00,,---,0.00,VWS V13.00,2013-02-06 17:20:00,
2013-02-06 10:25:00,36.2,22.0,29.87,WSW,239,13.0,20.0,56,0.00,,---,0.00,VWS V13.00,2013-02-06 17:25:00,
2013-02-06 10:30:00,36.4,22.2,29.87,SSW,212,14.0,22.0,56,0.00,,---,0.00,VWS V13.00,2013-02-06 17:30:00,
2013-02-06 10:35:00,36.5,22.7,29.87,SW,235,17.0,22.0,57,0.00,,---,0.00,VWS V13.00,2013-02-06 17:35:00,
2013-02-06 10:40:00,36.7,24.5,29.88,WSW,240,17.0,18.0,61,0.00,,---,0.00,VWS V13.00,2013-02-06 17:40:00,
2013-02-06 10:45:00,36.9,23.5,29.88,WSW,240,15.0,19.0,58,0.00,,---,0.00,VWS V13.00,2013-02-06 17:45:00,
2013-02-06 10:50:00,37.1,24.1,29.88,SW,232,10.0,19.0,59,0.00,,---,0.00,VWS V13.00,2013-02-06 17:50:00,
2013-02-06 10:55:00,37.3,23.9,29.88,SW,235,11.0,19.0,58,0.00,,---,0.00,VWS V13.00,2013-02-06 17:55:00,
2013-02-06 11:00:00,37.6,24.2,29.88,WSW,241,20.0,22.0,58,0.00,,---,0.00,VWS V13.00,2013-02-06 18:00:00,
2013-02-06 11:05:00,37.9,24.0,29.88,WSW,241,13.0,22.0,57,0.00,,---,0.00,VWS V13.00,2013-02-06 18:05:00,
2013-02-06 11:10:00,38.2,24.3,29.87,WSW,244,12.0,13.0,57,0.00,,---,0.00,VWS V13.00,2013-02-06 18:10:00,
2013-02-06 11:15:00,38.5,25.0,29.87,SW,232,7.0,16.0,58,0.00,,---,0.00,VWS V13.00,2013-02-06 18:15:00,
2013-02-06 11:20:00,39.1,25.6,29.87,West,260,15.0,16.0,58,0.00,,---,0.00,VWS V13.00,2013-02-06 18:20:00,
2013-02-06 11:25:00,39.2,23.1,29.87,West,276,15.0,22.0,52,0.00,,---,0.00,VWS V13.00,2013-02-06 18:25:00,
2013-02-06 11:30:00,39.4,22.8,29.87,West,276,18.0,25.0,51,0.00,,---,0.00,VWS V13.00,2013-02-06 18:30:00,
2013-02-06 11:35:00,39.5,23.4,29.87,West,273,17.0,25.0,52,0.00,,---,0.00,VWS V13.00,2013-02-06 18:35:00,
2013-02-06 11:40:00,40.0,22.9,29.86,West,279,17.0,19.0,50,0.00,,---,0.00,VWS V13.00,2013-02-06 18:40:00,
2013-02-06 11:45:00,40.5,24.7,29.86,West,264,12.0,19.0,53,0.00,,---,0.00,VWS V13.00,2013-02-06 18:45:00,
2013-02-06 11:50:00,40.7,24.9,29.86,WSW,251,13.0,19.0,53,0.00,,---,0.00,VWS V13.00,2013-02-06 18:50:00,
2013-02-06 11:55:00,40.4,24.2,29.85,WSW,241,11.0,19.0,52,0.00,,---,0.00,VWS V13.00,2013-02-06 18:55:00,
2013-02-06 12:00:00,40.2,24.5,29.85,WSW,256,10.0,19.0,53,0.00,,---,0.00,VWS V13.00,2013-02-06 19:00:00,
2013-02-06 12:05:00,40.4,24.2,29.85,West,269,12.0,19.0,52,0.00,,---,0.00,VWS V13.00,2013-02-06 19:05:00,
2013-02-06 12:10:00,40.6,23.0,29.85,West,275,14.0,19.0,49,0.00,,---,0.00,VWS V13.00,2013-02-06 19:10:00,
2013-02-06 12:15:00,40.7,24.0,29.85,West,262,15.0,19.0,51,0.00,,---,0.00,VWS V13.00,2013-02-06 19:15:00,
2013-02-06 12:20:00,40.8,22.6,29.85,West,272,22.0,25.0,48,0.00,,---,0.00,VWS V13.00,2013-02-06 19:20:00,
2013-02-06 12:25:00,40.7,22.5,29.84,West,273,22.0,26.0,48,0.00,,---,0.00,VWS V13.00,2013-02-06 19:25:00,
2013-02-06 12:30:00,40.5,22.9,29.84,WSW,250,17.0,27.0,49,0.00,,---,0.00,VWS V13.00,2013-02-06 19:30:00,
2013-02-06 12:35:00,40.4,22.3,29.84,West,269,16.0,27.0,48,0.00,,---,0.00,VWS V13.00,2013-02-06 19:35:00,
2013-02-06 12:40:00,40.5,22.9,29.85,West,269,21.0,21.0,49,0.00,,---,0.00,VWS V13.00,2013-02-06 19:40:00,
2013-02-06 12:45:00,40.6,23.0,29.85,West,275,19.0,28.0,49,0.00,,---,0.00,VWS V13.00,2013-02-06 19:45:00,
2013-02-06 12:50:00,40.2,21.6,29.85,West,280,19.0,28.0,47,0.00,,---,0.00,VWS V13.00,2013-02-06 19:50:00,
2013-02-06 12:55:00,39.7,23.1,29.86,WNW,283,19.0,28.0,51,0.00,,---,0.00,VWS V13.00,2013-02-06 19:55:00,
2013-02-06 13:00:00,39.4,22.8,29.86,West,281,13.0,28.0,51,0.00,,---,0.00,VWS V13.00,2013-02-06 20:00:00,
2013-02-06 13:05:00,39.7,24.0,29.86,West,263,10.0,28.0,53,0.00,,---,0.00,VWS V13.00,2013-02-06 20:05:00,
2013-02-06 13:10:00,40.1,24.8,29.86,West,264,15.0,16.0,54,0.00,,---,0.00,VWS V13.00,2013-02-06 20:10:00,
2013-02-06 13:15:00,40.4,25.1,29.86,WSW,246,11.0,16.0,54,0.00,,---,0.00,VWS V13.00,2013-02-06 20:15:00,
2013-02-06 13:20:00,40.2,25.3,29.86,WSW,251,7.0,16.0,55,0.00,,---,0.00,VWS V13.00,2013-02-06 20:20:00,
2013-02-06 13:25:00,39.8,25.4,29.86,WSW,256,9.0,16.0,56,0.00,,---,0.00,VWS V13.00,2013-02-06 20:25:00,
2013-02-06 13:30:00,39.4,25.5,29.86,WSW,257,13.0,16.0,57,0.00,,---,0.00,VWS V13.00,2013-02-06 20:30:00,
2013-02-06 13:35:00,38.9,25.4,29.86,WSW,258,12.0,16.0,58,0.00,,---,0.00,VWS V13.00,2013-02-06 20:35:00,
2013-02-06 13:40:00,38.6,25.5,29.86,West,261,7.0,10.0,59,0.00,,---,0.00,VWS V13.00,2013-02-06 20:40:00,
2013-02-06 13:45:00,38.3,25.2,29.86,West,261,12.0,14.0,59,0.00,,---,0.00,VWS V13.00,2013-02-06 20:45:00,
2013-02-06 13:50:00,38.2,25.1,29.86,West,273,10.0,14.0,59,0.00,,---,0.00,VWS V13.00,2013-02-06 20:50:00,
2013-02-06 13:55:00,38.2,25.1,29.87,West,273,9.0,14.0,59,0.00,,---,0.00,VWS V13.00,2013-02-06 20:55:00,
2013-02-06 14:00:00,38.2,24.7,29.87,West,263,10.0,14.0,58,0.00,,---,0.00,VWS V13.00,2013-02-06 21:00:00,
2013-02-06 14:05:00,38.2,24.7,29.87,West,270,12.0,14.0,58,0.00,,---,0.00,VWS V13.00,2013-02-06 21:05:00,
2013-02-06 14:10:00,38.0,24.5,29.87,West,271,15.0,15.0,58,0.00,,---,0.00,VWS V13.00,2013-02-06 21:10:00,
2013-02-06 14:15:00,37.9,23.6,29.87,West,265,15.0,18.0,56,0.00,,---,0.00,VWS V13.00,2013-02-06 21:15:00,
2013-02-06 14:20:00,37.9,23.6,29.87,West,265,12.0,18.0,56,0.00,,---,0.00,VWS V13.00,2013-02-06 21:20:00,
2013-02-06 14:25:00,37.9,23.6,29.88,West,268,14.0,18.0,56,0.00,,---,0.00,VWS V13.00,2013-02-06 21:25:00,
2013-02-06 14:30:00,37.9,24.5,29.88,West,262,12.0,18.0,58,0.00,,---,0.00,VWS V13.00,2013-02-06 21:30:00,
2013-02-06 14:35:00,37.8,24.8,29.88,West,262,7.0,18.0,59,0.00,,---,0.00,VWS V13.00,2013-02-06 21:35:00,
2013-02-06 14:40:00,37.7,24.7,29.88,WSW,256,6.0,6.0,59,0.00,,---,0.00,VWS V13.00,2013-02-06 21:40:00,
2013-02-06 14:45:00,37.8,24.8,29.88,West,265,6.0,10.0,59,0.00,,---,0.00,VWS V13.00,2013-02-06 21:45:00,
2013-02-06 14:50:00,37.7,24.7,29.88,West,272,10.0,12.0,59,0.00,,---,0.00,VWS V13.00,2013-02-06 21:50:00,
2013-02-06 14:55:00,37.6,25.0,29.91,West,279,10.0,13.0,60,0.00,,---,0.00,VWS V13.00,2013-02-06 21:55:00,
2013-02-06 15:00:00,37.4,24.8,29.91,WNW,294,3.0,13.0,60,0.00,,---,0.00,VWS V13.00,2013-02-06 22:00:00,
2013-02-06 15:05:00,37.3,25.1,29.91,WNW,294,2.0,13.0,61,0.00,,---,0.00,VWS V13.00,2013-02-06 22:05:00,
2013-02-06 15:10:00,37.4,24.0,29.91,WNW,294,4.0,5.0,58,0.00,,---,0.00,VWS V13.00,2013-02-06 22:10:00,
2013-02-06 15:15:00,37.5,24.1,29.91,WNW,294,3.0,5.0,58,0.00,,---,0.00,VWS V13.00,2013-02-06 22:15:00,
2013-02-06 15:20:00,37.7,24.7,29.91,WNW,294,2.0,5.0,59,0.00,,---,0.00,VWS V13.00,2013-02-06 22:20:00,
2013-02-06 15:25:00,37.9,24.9,29.91,WNW,294,4.0,5.0,59,0.00,,---,0.00,VWS V13.00,2013-02-06 22:25:00,
2013-02-06 15:30:00,38.1,25.1,29.91,WNW,294,3.0,5.0,59,0.00,,---,0.00,VWS V13.00,2013-02-06 22:30:00,
2013-02-06 15:35:00,38.0,24.5,29.91,WNW,294,3.0,5.0,58,0.00,,---,0.00,VWS V13.00,2013-02-06 22:35:00,
2013-02-06 15:40:00,38.0,24.1,29.92,WNW,288,6.0,6.0,57,0.00,,---,0.00,VWS V13.00,2013-02-06 22:40:00,
2013-02-06 15:45:00,38.0,25.0,29.92,WNW,284,3.0,6.0,59,0.00,,---,0.00,VWS V13.00,2013-02-06 22:45:00,
2013-02-06 15:50:00,37.9,24.0,29.92,West,273,7.0,12.0,57,0.00,,---,0.00,VWS V13.00,2013-02-06 22:50:00,
2013-02-06 15:55:00,37.6,23.8,29.92,WNW,292,8.0,13.0,57,0.00,,---,0.00,VWS V13.00,2013-02-06 22:55:00,
2013-02-06 16:00:00,37.7,24.7,29.92,West,264,6.0,13.0,59,0.00,,---,0.00,VWS V13.00,2013-02-06 23:00:00,
2013-02-06 16:05:00,37.5,24.5,29.92,WSW,246,5.0,13.0,59,0.00,,---,0.00,VWS V13.00,2013-02-06 23:05:00,
2013-02-06 16:10:00,37.0,24.8,29.93,WSW,249,3.0,3.0,61,0.00,,---,0.00,VWS V13.00,2013-02-06 23:10:00,
2013-02-06 16:15:00,36.8,24.2,29.93,WSW,253,3.0,5.0,60,0.00,,---,0.00,VWS V13.00,2013-02-06 23:15:00,
2013-02-06 16:20:00,36.6,24.0,29.93,WSW,254,3.0,5.0,60,0.00,,---,0.00,VWS V13.00,2013-02-06 23:20:00,
2013-02-06 16:25:00,36.4,23.9,29.93,WSW,257,4.0,6.0,60,0.00,,---,0.00,VWS V13.00,2013-02-06 23:25:00,
2013-02-06 16:30:00,36.2,24.5,29.93,WSW,258,3.0,6.0,62,0.00,,---,0.00,VWS V13.00,2013-02-06 23:30:00,
2013-02-06 16:35:00,36.0,25.0,29.93,WSW,258,2.0,6.0,64,0.00,,---,0.00,VWS V13.00,2013-02-06 23:35:00,
2013-02-06 16:40:00,35.9,24.5,29.94,West,268,6.0,7.0,63,0.00,,---,0.00,VWS V13.00,2013-02-06 23:40:00,
2013-02-06 16:45:00,36.2,24.1,29.94,WNW,286,6.0,12.0,61,0.00,,---,0.00,VWS V13.00,2013-02-06 23:45:00,
2013-02-06 16:50:00,36.5,22.7,29.94,WNW,295,14.0,17.0,57,0.00,,---,0.00,VWS V13.00,2013-02-06 23:50:00,
2013-02-06 16:55:00,37.0,22.4,29.94,WNW,289,12.0,17.0,55,0.00,,---,0.00,VWS V13.00,2013-02-06 23:55:00,
2013-02-06 17:00:00,37.3,21.8,29.94,WNW,291,13.0,17.0,53,0.00,,---,0.00,VWS V13.00,2013-02-07 00:00:00,
2013-02-06 17:05:00,37.4,22.7,29.94,WNW,284,10.0,17.0,55,0.00,,---,0.00,VWS V13.00,2013-02-07 00:05:00,
2013-02-06 17:10:00,37.2,23.0,29.94,West,275,10.0,10.0,56,0.00,,---,0.00,VWS V13.00,2013-02-07 00:10:00,
2013-02-06 17:15:00,37.0,23.2,29.94,West,259,7.0,11.0,57,0.00,,---,0.00,VWS V13.00,2013-02-07 00:15:00,
2013-02-06 17:20:00,36.7,23.7,29.94,WSW,258,6.0,11.0,59,0.00,,---,0.00,VWS V13.00,2013-02-07 00:20:00,
2013-02-06 17:24:00,36.3,23.4,29.96,West,264,10.0,11.0,59,0.00,,---,0.00,VWS V13.00,2013-02-07 00:24:00,
2013-02-06 17:29:00,35.8,22.5,29.96,West,276,9.0,12.0,58,0.00,,---,0.00,VWS V13.00,2013-02-07 00:29:00,
2013-02-06 17:34:00,35.4,22.5,29.96,West,269,9.0,12.0,59,0.00,,---,0.00,VWS V13.00,2013-02-07 00:34:00,
2013-02-06 17:39:00,35.0,22.5,29.97,West,276,11.0,11.0,60,0.00,,---,0.00,VWS V13.00,2013-02-07 00:39:00,
2013-02-06 17:44:00,34.5,21.3,29.97,WNW,285,9.0,15.0,58,0.00,,---,0.00,VWS V13.00,2013-02-07 00:44:00,
2013-02-06 17:49:00,34.4,21.6,29.97,West,279,6.0,15.0,59,0.00,,---,0.00,VWS V13.00,2013-02-07 00:49:00,
2013-02-06 17:54:00,34.3,21.9,29.98,WSW,253,7.0,15.0,60,0.00,,---,0.00,VWS V13.00,2013-02-07 00:54:00,
2013-02-06 17:59:00,33.7,21.7,29.98,WSW,249,5.0,15.0,61,0.00,,---,0.00,VWS V13.00,2013-02-07 00:59:00,
2013-02-06 18:04:00,33.2,21.2,29.98,SW,232,6.0,15.0,61,0.00,,---,0.00,VWS V13.00,2013-02-07 01:04:00,
2013-02-06 18:09:00,32.6,20.7,30.00,SW,233,7.0,7.0,61,0.00,,---,0.00,VWS V13.00,2013-02-07 01:09:00,
2013-02-06 18:14:00,32.1,20.6,30.00,WSW,238,7.0,10.0,62,0.00,,---,0.00,VWS V13.00,2013-02-07 01:14:00,
2013-02-06 18:19:00,31.6,20.5,30.00,WSW,241,5.0,11.0,63,0.00,,---,0.00,VWS V13.00,2013-02-07 01:19:00,
2013-02-06 18:24:00,31.1,20.7,30.01,WSW,241,8.0,11.0,65,0.00,,---,0.00,VWS V13.00,2013-02-07 01:24:00,
2013-02-06 18:29:00,30.6,20.2,30.01,SW,232,8.0,11.0,65,0.00,,---,0.00,VWS V13.00,2013-02-07 01:29:00,
2013-02-06 18:34:00,30.3,19.6,30.01,SW,232,2.0,12.0,64,0.00,,---,0.00,VWS V13.00,2013-02-07 01:34:00,
2013-02-06 18:39:00,30.3,19.6,30.02,SW,219,11.0,11.0,64,0.00,,---,0.00,VWS V13.00,2013-02-07 01:39:00,
2013-02-06 18:44:00,30.3,19.6,30.02,SW,219,2.0,13.0,64,0.00,,---,0.00,VWS V13.00,2013-02-07 01:44:00,
2013-02-06 18:49:00,30.4,19.3,30.02,SW,228,6.0,13.0,63,0.00,,---,0.00,VWS V13.00,2013-02-07 01:49:00,
2013-02-06 18:54:00,30.4,19.3,30.03,SW,226,6.0,13.0,63,0.00,,---,0.00,VWS V13.00,2013-02-07 01:54:00,
2013-02-06 18:59:00,30.3,19.2,30.03,SW,232,15.0,15.0,63,0.00,,---,0.00,VWS V13.00,2013-02-07 01:59:00,
2013-02-06 19:04:00,30.3,19.2,30.03,SW,229,11.0,16.0,63,0.00,,---,0.00,VWS V13.00,2013-02-07 02:04:00,
2013-02-06 19:09:00,30.2,19.1,30.04,SW,220,10.0,11.0,63,0.00,,---,0.00,VWS V13.00,2013-02-07 02:09:00,
2013-02-06 19:14:00,30.2,19.5,30.04,SW,236,4.0,13.0,64,0.00,,---,0.00,VWS V13.00,2013-02-07 02:14:00,
2013-02-06 19:19:00,30.1,19.4,30.04,SW,233,9.0,15.0,64,0.00,,---,0.00,VWS V13.00,2013-02-07 02:19:00,
2013-02-06 19:24:00,30.2,19.5,30.04,WSW,239,11.0,15.0,64,0.00,,---,0.00,VWS V13.00,2013-02-07 02:24:00,
2013-02-06 19:29:00,30.1,19.4,30.04,SW,232,12.0,16.0,64,0.00,,---,0.00,VWS V13.00,2013-02-07 02:29:00,
2013-02-06 19:34:00,29.8,19.1,30.04,SW,236,14.0,17.0,64,0.00,,---,0.00,VWS V13.00,2013-02-07 02:34:00,
2013-02-06 19:39:00,29.3,19.0,30.05,WSW,240,13.0,13.0,65,0.00,,---,0.00,VWS V13.00,2013-02-07 02:39:00,
2013-02-06 19:44:00,28.9,19.0,30.05,WSW,238,11.0,17.0,66,0.00,,---,0.00,VWS V13.00,2013-02-07 02:44:00,
2013-02-06 19:49:00,28.8,18.9,30.05,SW,227,15.0,17.0,66,0.00,,---,0.00,VWS V13.00,2013-02-07 02:49:00,
2013-02-06 19:54:00,28.7,18.8,30.05,SW,234,11.0,17.0,66,0.00,,---,0.00,VWS V13.00,2013-02-07 02:54:00,
2013-02-06 19:59:00,28.7,18.8,30.05,SW,234,12.0,17.0,66,0.00,,---,0.00,VWS V13.00,2013-02-07 02:59:00,
2013-02-06 20:04:00,28.7,18.8,30.05,WSW,242,13.0,17.0,66,0.00,,---,0.00,VWS V13.00,2013-02-07 03:04:00,
2013-02-06 20:09:00,28.8,18.9,30.06,SW,225,10.0,10.0,66,0.00,,---,0.00,VWS V13.00,2013-02-07 03:09:00,
2013-02-06 20:14:00,28.9,19.0,30.06,SW,220,14.0,16.0,66,0.00,,---,0.00,VWS V13.00,2013-02-07 03:14:00,
2013-02-06 20:19:00,29.1,19.2,30.06,SW,234,10.0,16.0,66,0.00,,---,0.00,VWS V13.00,2013-02-07 03:19:00,
2013-02-06 20:24:00,29.3,19.0,30.06,WSW,237,11.0,16.0,65,0.00,,---,0.00,VWS V13.00,2013-02-07 03:24:00,
2013-02-06 20:29:00,29.5,18.8,30.06,SW,222,8.0,16.0,64,0.00,,---,0.00,VWS V13.00,2013-02-07 03:29:00,
2013-02-06 20:34:00,29.7,19.0,30.06,SW,229,9.0,16.0,64,0.00,,---,0.00,VWS V13.00,2013-02-07 03:34:00,
2013-02-06 20:39:00,29.7,18.7,30.06,SW,229,9.0,9.0,63,0.00,,---,0.00,VWS V13.00,2013-02-07 03:39:00,
2013-02-06 20:44:00,29.9,18.9,30.06,SW,227,3.0,11.0,63,0.00,,---,0.00,VWS V13.00,2013-02-07 03:44:00,
2013-02-06 20:49:00,29.9,18.9,30.06,SW,232,5.0,11.0,63,0.00,,---,0.00,VWS V13.00,2013-02-07 03:49:00,
2013-02-06 20:54:00,29.9,18.5,30.04,SW,235,10.0,11.0,62,0.00,,---,0.00,VWS V13.00,2013-02-07 03:54:00,
2013-02-06 20:59:00,29.9,18.9,30.04,SW,234,6.0,12.0,63,0.00,,---,0.00,VWS V13.00,2013-02-07 03:59:00,
2013-02-06 21:04:00,29.8,18.8,30.04,SW,235,9.0,12.0,63,0.00,,---,0.00,VWS V13.00,2013-02-07 04:04:00,
2013-02-06 21:09:00,29.6,18.6,30.05,SW,233,9.0,9.0,63,0.00,,---,0.00,VWS V13.00,2013-02-07 04:09:00,
2013-02-06 21:14:00,29.4,18.4,30.05,SW,228,4.0,11.0,63,0.00,,---,0.00,VWS V13.00,2013-02-07 04:14:00,
2013-02-06 21:19:00,29.3,18.3,30.05,SW,232,10.0,14.0,63,0.00,,---,0.00,VWS V13.00,2013-02-07 04:19:00,
2013-02-06 21:24:00,29.4,18.4,30.06,WSW,238,11.0,14.0,63,0.00,,---,0.00,VWS V13.00,2013-02-07 04:24:00,
2013-02-06 21:29:00,29.5,18.5,30.06,WSW,248,3.0,14.0,63,0.00,,---,0.00,VWS V13.00,2013-02-07 04:29:00,
2013-02-06 21:34:00,29.3,18.3,30.06,WSW,249,3.0,14.0,63,0.00,,---,0.00,VWS V13.00,2013-02-07 04:34:00,
2013-02-06 21:39:00,29.0,18.0,30.07,WSW,248,5.0,14.0,63,0.00,,---,0.00,VWS V13.00,2013-02-07 04:39:00,
2013-02-06 21:44:00,28.7,18.1,30.07,WSW,251,5.0,8.0,64,0.00,,---,0.00,VWS V13.00,2013-02-07 04:44:00,
2013-02-06 21:49:00,28.3,17.7,30.07,WSW,244,9.0,10.0,64,0.00,,---,0.00,VWS V13.00,2013-02-07 04:49:00,
2013-02-06 21:54:00,28.0,17.8,30.06,WSW,250,9.0,12.0,65,0.00,,---,0.00,VWS V13.00,2013-02-07 04:54:00,
2013-02-06 21:59:00,28.0,17.4,30.06,WSW,254,7.0,12.0,64,0.00,,---,0.00,VWS V13.00,2013-02-07 04:59:00,
2013-02-06 22:00:00,28.0,17.8,30.06,WSW,254,6.0,12.0,65,0.00,,---,0.00,VWS V13.00,2013-02-07 05:00:00,
2013-02-06 22:05:00,27.8,17.6,30.06,West,260,8.0,12.0,65,0.00,,---,0.00,VWS V13.00,2013-02-07 05:05:00,
2013-02-06 22:10:00,27.4,17.2,30.06,West,268,9.0,10.0,65,0.00,,---,0.00,VWS V13.00,2013-02-07 05:10:00,
2013-02-06 22:15:00,27.0,16.8,30.06,West,272,8.0,10.0,65,0.00,,---,0.00,VWS V13.00,2013-02-07 05:15:00,
2013-02-06 22:20:00,26.3,16.9,30.06,West,275,8.0,10.0,67,0.00,,---,0.00,VWS V13.00,2013-02-07 05:20:00,
2013-02-06 22:25:00,25.9,16.8,30.07,West,275,7.0,10.0,68,0.00,,---,0.00,VWS V13.00,2013-02-07 05:25:00,
2013-02-06 22:30:00,25.5,16.4,30.07,West,275,5.0,10.0,68,0.00,,---,0.00,VWS V13.00,2013-02-07 05:30:00,
2013-02-06 22:35:00,25.1,16.4,30.07,West,277,7.0,11.0,69,0.00,,---,0.00,VWS V13.00,2013-02-07 05:35:00,
2013-02-06 22:40:00,25.0,16.6,30.07,West,277,6.0,7.0,70,0.00,,---,0.00,VWS V13.00,2013-02-07 05:40:00,
2013-02-06 22:45:00,24.9,16.5,30.07,West,277,7.0,9.0,70,0.00,,---,0.00,VWS V13.00,2013-02-07 05:45:00,
2013-02-06 22:50:00,24.8,16.4,30.07,West,277,6.0,9.0,70,0.00,,---,0.00,VWS V13.00,2013-02-07 05:50:00,
2013-02-06 22:55:00,24.7,16.3,30.06,West,277,7.0,9.0,70,0.00,,---,0.00,VWS V13.00,2013-02-07 05:55:00,
2013-02-06 23:00:00,24.7,16.3,30.06,West,277,9.0,9.0,70,0.00,,---,0.00,VWS V13.00,2013-02-07 06:00:00,
2013-02-06 23:05:00,24.5,16.1,30.06,West,277,5.0,9.0,70,0.00,,---,0.00,VWS V13.00,2013-02-07 06:05:00,
2013-02-06 23:10:00,24.4,16.0,30.06,West,277,6.0,9.0,70,0.00,,---,0.00,VWS V13.00,2013-02-07 06:10:00,
2013-02-06 23:15:00,24.2,16.2,30.06,WNW,283,7.0,10.0,71,0.00,,---,0.00,VWS V13.00,2013-02-07 06:15:00,
2013-02-06 23:20:00,24.2,16.2,30.06,WNW,283,6.0,10.0,71,0.00,,---,0.00,VWS V13.00,2013-02-07 06:20:00,
2013-02-06 23:25:00,24.0,16.0,30.06,WNW,284,6.0,10.0,71,0.00,,---,0.00,VWS V13.00,2013-02-07 06:25:00,
2013-02-06 23:30:00,23.9,15.9,30.06,WNW,284,6.0,10.0,71,0.00,,---,0.00,VWS V13.00,2013-02-07 06:30:00,
2013-02-06 23:35:00,23.7,16.0,30.06,WNW,283,4.0,10.0,72,0.00,,---,0.00,VWS V13.00,2013-02-07 06:35:00,
2013-02-06 23:40:00,23.6,15.9,30.07,West,281,3.0,7.0,72,0.00,,---,0.00,VWS V13.00,2013-02-07 06:40:00,
2013-02-06 23:45:00,23.6,15.9,30.07,West,281,6.0,9.0,72,0.00,,---,0.00,VWS V13.00,2013-02-07 06:45:00,
2013-02-06 23:50:00,23.6,15.9,30.07,WNW,282,6.0,9.0,72,0.00,,---,0.00,VWS V13.00,2013-02-07 06:50:00,
2013-02-06 23:55:00,23.7,15.7,30.07,WNW,283,7.0,10.0,71,0.00,,---,0.00,VWS V13.00,2013-02-07 06:55:00,